Regional Weather Roundup
Issued by NWS Jackson, KY

Home | Current Version | Previous Version | Graphics & Text | Print | Product List | Glossary On
Versions: 1 2 3 4 5 6 7 8 9 10 11 12 13 14 15 16 17 18 19 20 21 22 23 24 25 26 27 28 29 30 31 32 33 34 35 36 37 38 39 40 41 42 43 44 45 46 47 48 49 50
000
ASUS43 KJKL 250819
RWRJKL

EAST KENTUCKY HOURLY WEATHER ROUNDUP
NATIONAL WEATHER SERVICE JACKSON KY
400 AM EDT FRI JUL 25 2014

NOTE: "FAIR" INDICATES FEW OR NO CLOUDS BELOW 12,000 FEET WITH
NO SIGNIFICANT WEATHER AND/OR OBSTRUCTIONS TO VISIBILITY.

* THESE REPORTS ARE NOT UNDER NWS QUALITY CONTROL AND MAY NOT
  REPORT WEATHER SUCH AS PRECIPITATION AND FOG.

KYZ079-080-083-085-087-088-110-112-115-119-120-250900
...EASTERN KENTUCKY...

CITY           SKY/WX    TMP DP  RH WIND       PRES   REMARKS
JACKSON        FOG       60  58  92 CALM      30.07R VSB 1/4
LONDON         FOG       59  58  96 SE3       30.07R VSB 1/4
SOMERSET*      FOG       61  61 100 CALM      30.07S VSB 1/4
MONTICELLO*    FOG       57  57 100 CALM      30.07S VSB 1/4
WILLIAMSBURG*  CLOUDY    59  59 100 CALM      30.06F
MIDDLESBORO*   CLOUDY    61  60  97 CALM      30.07S
HARLAN APT*    CLOUDY    59  59 100 MISG      30.07S
BLACK MTN*       N/A     54  54 100 E2          N/A
PIKEVILLE APT* FOG       61  61 100 CALM      30.07S VSB 3/4
BIG SANDY*     FOG       61  61 100 S3        30.07R VSB<1/4
MOREHEAD APT*    N/A     59  55  88 CALM      30.09R
ASHLAND*       CLEAR     57  54  88 CALM      30.04S
$$

KYZ035-036-041-042-044-050-067-078-099-250900
...CENTRAL KENTUCKY...

CITY           SKY/WX    TMP DP  RH WIND       PRES   REMARKS
MT STERLING*   CLEAR     57  55  94 E5        30.07F
FLEMING/MASON* CLEAR     59  54  82 NE5       30.07F
DANVILLE*      CLEAR     55  55 100 CALM      30.06F
RICHMOND*      MOCLDY    59  57  94 SE3       30.05S VSB 1
LEXINGTON      CLEAR     58  54  86 CALM      30.06S
FRANKFORT      CLEAR     58  55  90 CALM      30.05F
$$

KYZ091>093-OHZ055-061-077-WVZ005-015-034-035-042-250900
...SOUTHERN OHIO/WEST VIRGINIA...

CITY           SKY/WX    TMP DP  RH WIND       PRES   REMARKS
COVINGTON      CLEAR     61  50  67 E6        30.07R
COLUMBUS       CLEAR     57  51  80 CALM      30.06F
DAYTON         CLEAR     57  50  77 E5        30.08S
WILMINGTON     CLEAR     56  49  77 E3        30.07S
HUNTINGTON     PTCLDY    60  59  96 CALM      30.05R
CHARLESTON     FOG       62  62 100 CALM      30.06R VSB 1
PINEVILLE*     CLOUDY    62  62 100 MISG      30.12F FOG
BECKLEY        FOG       58  56  93 CALM      30.10R VSB 1/4
BLUEFIELD      CLEAR     60  55  83 CALM      30.10F HAZE
$$

VAZ002-007-008-TNZ017-027-036-066-071-250900
...SOUTHWEST VIRGINIA/EAST TENNESSEE...

CITY           SKY/WX    TMP DP  RH WIND       PRES   REMARKS
WISE*          CLOUDY    59  59 100 CALM      30.11R FOG
JONESVILLE*    FOG       57  57 100 CALM      30.08R VSB<1/4
ABINGDON*      CLEAR     61  61  98 CALM      30.06F
BRISTOL        PTCLDY    61  58  90 CALM      30.04F
KNOXVILLE      CLEAR     64  63  96 N6        30.01F
OAK RIDGE      MOCLDY    63  61  93 CALM      30.05R
CROSSVILLE     FOG       60  58  92 CALM      30.06F VSB 1/2
NASHVILLE      CLEAR     66  58  75 NE3       30.03S
$$

...KEY TO REMARKS...
VSB - VISIBILITY IN MILES
WCI - WIND CHILL INDEX
HX  - HEAT INDEX

$$



USA.gov is the U.S. government's official web portal to all federal, state and local government web resources and services.